Murray, NE

1:35 AM CST on February 10, 2016 (GMT -0600)
Plattsmouth Municipal

Weather History for KPMV - October, 2012

Change the Weather History Date:

Tuesday, October 9, 2012

  Actual Average (WUND) Record (WUND)
Temperature  
Mean Temperature 48 °F -  
Max Temperature 56 °F - - (-1)
Min Temperature 38 °F - - (-1)
Degree Days  
Heating Degree Days 17    
Moisture  
Dew Point 31 °F    
Average Humidity 48    
Maximum Humidity 63    
Minimum Humidity 29    
Precipitation  
Precipitation 0.00 in - - ()
Sea Level Pressure  
Sea Level Pressure 29.95 in    
Wind  
Wind Speed 8 mph (WNW)    
Max Wind Speed 17 mph    
Max Gust Speed 28 mph    
Visibility 10 miles    
Events      
Averages and records for this station are not official NWS values.
T = Trace of Precipitation, MM = Missing Value Source: NWS Daily Summary

Daily Weather History Graph

Daily Weather History Graph

Search for Another Location

Airport or City:

Trip Planner

Search our weather history database for the weather conditions in past years. The results will help you decide how hot, cold, wet, or windy it might be!

Date:

Astronomy

Oct. 09, 2012 Rise Set
Actual Time 7:29 AM CDT 6:51 PM CDT
Civil Twilight 7:01 AM CDT 7:19 PM CDT
Nautical Twilight 6:29 AM CDT 7:50 PM CDT
Astronomical Twilight 5:57 AM CDT 8:22 PM CDT
Moon 1:04 AM CDT (10/9) 3:22 PM CDT (10/9)
Length of Visible Light 12h 17m
Length of Day
11h 22m
Last Quarter, 36% of the Moon is Illuminated
Oct 9
Last Quarter
Oct 15
New
Oct 21
First Quarter
Oct 29
Full
Nov 6
Last Quarter

Hourly Weather History & Observations

Time (CDT) Temp. Windchill Dew Point Humidity Pressure Visibility Wind Dir Wind Speed Gust Speed Precip Events Conditions
12:15 AM 56.3 °F - 32.7 °F 41% 29.80 in 10.0 mi South 17.3 mph - N/A   Clear
12:35 AM 55.2 °F - 32.9 °F 43% 29.84 in 10.0 mi NNW 6.9 mph - N/A   Clear
12:55 AM 54.0 °F - 32.5 °F 44% 29.84 in 10.0 mi West 3.5 mph - N/A   Clear
1:15 AM 52.0 °F - 32.2 °F 47% 29.84 in 10.0 mi Calm Calm - N/A   Clear
1:55 AM 50.5 °F - 33.1 °F 51% 29.85 in 10.0 mi South 4.6 mph - N/A   Clear
2:15 AM 50.4 °F - 33.8 °F 53% 29.84 in 10.0 mi South 6.9 mph - N/A   Clear
2:55 AM 50.5 °F - 34.2 °F 53% 29.84 in 10.0 mi South 5.8 mph - N/A   Clear
3:15 AM 50.0 °F - 34.3 °F 55% 29.84 in 10.0 mi SSE 4.6 mph - N/A   Clear
3:35 AM 49.3 °F - 34.3 °F 56% 29.84 in 10.0 mi South 3.5 mph - N/A   Clear
3:55 AM 47.8 °F - 34.3 °F 60% 29.82 in 10.0 mi South 8.1 mph - N/A   Clear
4:15 AM 49.5 °F - 35.1 °F 58% 29.81 in 10.0 mi South 9.2 mph - N/A   Clear
4:35 AM 51.1 °F - 35.4 °F 55% 29.81 in 10.0 mi South 9.2 mph - N/A   Clear
4:55 AM 51.8 °F - 35.6 °F 54% 29.81 in 10.0 mi South 11.5 mph - N/A   Clear
5:15 AM 52.7 °F - 35.6 °F 52% 29.80 in 10.0 mi South 13.8 mph - N/A   Clear
5:35 AM 52.7 °F - 35.2 °F 52% 29.80 in 10.0 mi South 13.8 mph - N/A   Clear
5:55 AM 53.1 °F - 35.1 °F 50% 29.81 in 10.0 mi SSW 10.4 mph 16.1 mph N/A   Clear
6:15 AM 51.8 °F - 35.1 °F 53% 29.83 in 10.0 mi SW 5.8 mph - N/A   Clear
6:35 AM 51.8 °F - 35.1 °F 53% 29.84 in 10.0 mi SSW 6.9 mph - N/A   Clear
6:55 AM 50.2 °F - 35.1 °F 56% 29.85 in 10.0 mi Calm Calm - N/A   Clear
7:15 AM 50.0 °F - 35.2 °F 57% 29.85 in 10.0 mi WSW 4.6 mph - N/A   Clear
7:35 AM 49.3 °F - 35.2 °F 58% 29.86 in 10.0 mi WSW 3.5 mph - N/A   Clear
7:55 AM 49.1 °F - 35.2 °F 59% 29.87 in 10.0 mi WSW 3.5 mph - N/A   Clear
8:15 AM 48.7 °F - 36.0 °F 61% 29.87 in 10.0 mi Calm Calm - N/A   Clear
8:35 AM 49.6 °F - 36.5 °F 61% 29.87 in 10.0 mi West 3.5 mph - N/A   Clear
8:55 AM 50.2 °F - 36.9 °F 60% 29.88 in 10.0 mi WNW 4.6 mph - N/A   Clear
9:15 AM 51.8 °F - 37.2 °F 58% 29.88 in 10.0 mi NW 3.5 mph - N/A   Clear
9:35 AM 52.7 °F - 38.1 °F 58% 29.89 in 10.0 mi NNW 4.6 mph - N/A   Clear
9:55 AM 54.1 °F - 40.5 °F 60% 29.89 in 10.0 mi North 9.2 mph - N/A   Clear
10:15 AM 54.5 °F - 41.4 °F 61% 29.90 in 10.0 mi North 9.2 mph 18.4 mph N/A   Clear
10:35 AM 54.9 °F - 41.9 °F 62% 29.91 in 10.0 mi North 10.4 mph - N/A   Clear
10:55 AM 54.7 °F - 42.3 °F 63% 29.93 in 10.0 mi North 12.7 mph 26.5 mph N/A   Clear
11:15 AM 55.8 °F - 42.6 °F 61% 29.93 in 10.0 mi North 11.5 mph 18.4 mph N/A   Scattered Clouds
11:35 AM 55.8 °F - 41.0 °F 58% 29.94 in 10.0 mi NNW 15.0 mph 24.2 mph N/A   Scattered Clouds
11:55 AM 56.1 °F - 39.7 °F 54% 29.95 in 10.0 mi NNW 12.7 mph 27.6 mph N/A   Scattered Clouds
12:15 PM 55.4 °F - 36.9 °F 50% 29.96 in 10.0 mi NNW 17.3 mph 24.2 mph N/A   Scattered Clouds
12:35 PM 54.3 °F - 36.5 °F 51% 29.97 in 10.0 mi NNW 15.0 mph 23.0 mph N/A   Scattered Clouds
12:55 PM 54.3 °F - 36.9 °F 52% 29.97 in 10.0 mi NNW 13.8 mph 20.7 mph N/A   Clear
1:15 PM 54.3 °F - 34.5 °F 47% 29.97 in 10.0 mi NNW 13.8 mph 20.7 mph N/A   Clear
1:35 PM 53.8 °F - 32.0 °F 44% 29.96 in 10.0 mi North 15.0 mph 23.0 mph N/A   Mostly Cloudy
1:55 PM 54.1 °F - 30.4 °F 40% 29.97 in 10.0 mi NNW 11.5 mph 20.7 mph N/A   Scattered Clouds
2:15 PM 55.6 °F - 27.1 °F 34% 29.96 in 10.0 mi NNW 12.7 mph 20.7 mph N/A   Scattered Clouds
2:35 PM 55.6 °F - 23.5 °F 29% 29.96 in 10.0 mi NW 17.3 mph 25.3 mph N/A   Mostly Cloudy
2:55 PM 54.5 °F - 23.5 °F 30% 29.97 in 10.0 mi NNW 15.0 mph 21.9 mph N/A   Mostly Cloudy
3:15 PM 54.0 °F - 23.5 °F 31% 29.99 in 10.0 mi NNW 10.4 mph 17.3 mph N/A   Mostly Cloudy
3:35 PM 53.1 °F - 24.1 °F 32% 29.99 in 10.0 mi NNW 8.1 mph - N/A   Overcast
3:55 PM 53.8 °F - 22.5 °F 30% 29.99 in 10.0 mi NW 17.3 mph 24.2 mph N/A   Overcast
4:15 PM 53.2 °F - 21.9 °F 29% 30.00 in 10.0 mi NNW 17.3 mph - N/A   Overcast
4:35 PM 53.2 °F - 23.0 °F 31% 30.01 in 10.0 mi NNW 12.7 mph 20.7 mph N/A   Mostly Cloudy
4:55 PM 52.7 °F - 23.4 °F 32% 30.01 in 10.0 mi NW 11.5 mph 20.7 mph N/A   Scattered Clouds
5:15 PM 52.3 °F - 23.4 °F 32% 30.01 in 10.0 mi NW 8.1 mph - N/A   Clear
5:35 PM 52.2 °F - 23.5 °F 33% 30.02 in 10.0 mi NNW 5.8 mph - N/A   Clear
5:55 PM 52.7 °F - 23.9 °F 33% 30.02 in 10.0 mi NW 4.6 mph - N/A   Clear
6:15 PM 50.2 °F - 23.7 °F 36% 30.02 in 10.0 mi NW 3.5 mph - N/A   Clear
6:35 PM 50.4 °F - 23.9 °F 36% 30.02 in 10.0 mi WNW 3.5 mph - N/A   Clear
6:55 PM 49.3 °F - 22.8 °F 35% 30.03 in 10.0 mi Calm Calm - N/A   Clear
7:15 PM 48.0 °F - 23.0 °F 37% 30.03 in 10.0 mi West 3.5 mph - N/A   Clear
7:35 PM 46.9 °F - 23.0 °F 39% 30.04 in 10.0 mi West 3.5 mph - N/A   Clear
7:55 PM 45.5 °F 42.5 °F 23.0 °F 41% 30.05 in 10.0 mi WNW 5.8 mph - N/A   Clear
8:15 PM 43.7 °F 41.1 °F 23.2 °F 44% 30.06 in 10.0 mi WNW 4.6 mph - N/A   Clear
8:35 PM 41.2 °F 38.2 °F 23.9 °F 50% 30.07 in 10.0 mi NW 4.6 mph - N/A   Clear
8:55 PM 43.7 °F 41.1 °F 22.8 °F 44% 30.08 in 10.0 mi NW 4.6 mph - N/A   Clear
9:15 PM 43.2 °F 39.7 °F 23.2 °F 45% 30.09 in 10.0 mi NW 5.8 mph - N/A   Clear
9:35 PM 42.8 °F 41.1 °F 23.2 °F 46% 30.10 in 10.0 mi NNW 3.5 mph - N/A   Clear
9:55 PM 43.9 °F - 25.5 °F 48% 30.11 in 10.0 mi Calm Calm - N/A   Clear
10:15 PM 44.6 °F 41.4 °F 27.0 °F 50% 30.12 in 10.0 mi North 5.8 mph - N/A   Clear
10:35 PM 42.8 °F 40.1 °F 26.4 °F 52% 30.13 in 10.0 mi NNW 4.6 mph - N/A   Clear
10:55 PM 42.6 °F 40.9 °F 26.4 °F 53% 30.14 in 10.0 mi NNW 3.5 mph - N/A   Clear
11:15 PM 40.3 °F 38.2 °F 25.2 °F 55% 30.15 in 10.0 mi WNW 3.5 mph - N/A   Clear
11:35 PM 40.1 °F - 25.5 °F 56% 30.15 in 10.0 mi Calm Calm - N/A   Clear
11:55 PM 38.8 °F 36.5 °F 25.7 °F 59% 30.15 in 10.0 mi West 3.5 mph - N/A   Clear